Location: Poughquag
(41.6090°N, 73.6820°W)
Time: 19:10:02
(UTC-05:00)

A-11 Canister half - Pass Details

Date: 16 December 2023
Orbit: 1526 x 1682 km, 47.3° (Epoch: 23 February)

Event Time Altitude Azimuth Distance (km) Brightness Sun altitude
Rises 21:16:02 0° 296° (WNW) 4,938 12.2 -53.1°
Reaches altitude 10° 21:19:13 10° 295° (WNW) 3,945 11.6 -53.6°
Enters shadow 21:23:26 30° 294° (WNW) 2,694 10.4 -54.4°
